Weather History for Litchfield, IL

Change the Weather History Date:

Monday, July 8, 2013

  Actual Average (KSPI) Record (KSPI)
Temperature  
Mean Temperature 78 °F 76 °F  
Max Temperature 88 °F 87 °F 103 °F (1936)
Min Temperature 69 °F 66 °F 53 °F (1954)
Degree Days  
Heating Degree Days 0 0  
Month to date heating degree days 0  
Since 1 June heating degree days 15  
Since 1 July heating degree days 0  
Cooling Degree Days 14 11  
Month to date cooling degree days 88  
Year to date cooling degree days 432  
Since 1 June cooling degree days 328  
Growing Degree Days 28 (Base 50)    
Moisture  
Dew Point 72 °F    
Average Humidity 83    
Maximum Humidity 97    
Minimum Humidity 61    
Precipitation  
Precipitation 0.00 in 0.13 in 1.81 in (1888)
Month to date precipitation 1.04  
Year to date precipitation 19.51  
Snow  
Snow 0.00 in 0.00 in 0.00 in ()
Month to date snowfall 0.0  
Since 1 June snowfall 0.0  
Since 1 July snowfall 0.0  
Snow Depth -    
Sea Level Pressure  
Sea Level Pressure 30.07 in    
Wind  
Wind Speed 6 mph (South)    
Max Wind Speed 12 mph    
Max Gust Speed 17 mph    
Visibility 10 miles    
Events      
T = Trace of Precipitation, MM = Missing Value Source: NWS Daily Summary

Daily Weather History Graph

Daily Weather History Graph

Search for Another Location

Airport:

Trip Planner

Search our weather history database for the weather conditions in past years. The results will help you decide how hot, cold, wet, or windy it might be!

Date:

Astronomy

Jul. 08, 2013 Rise Set
Actual Time 5:40 AM CDT 8:27 PM CDT
Civil Twilight 5:08 AM CDT 8:58 PM CDT
Nautical Twilight 4:28 AM CDT 9:38 PM CDT
Astronomical Twilight 3:43 AM CDT 10:23 PM CDT
Moon 6:08 AM CDT (7/8) 8:30 PM CDT (7/8)
Length of Visible Light 15h 50m
Length of Day
14h 46m
New Moon, 0% of the Moon is Illuminated
Jul 8
New Moon
Jul 15
First Quarter
Jul 22
Full
Jul 29
Last Quarter
Aug 6
New

Hourly Weather History & Observations

Time (CDT) Temp. Heat Index Dew Point Humidity Pressure Visibility Wind Dir Wind Speed Gust Speed Precip Events Conditions
12:15 AM 72.5 °F - 70.2 °F 92% 30.06 in 10.0 mi South 5.8 mph - N/A   Clear
12:35 AM 72.1 °F - 70.0 °F 93% 30.07 in 10.0 mi South 5.8 mph - N/A   Clear
12:55 AM 71.6 °F - 69.8 °F 94% 30.07 in 10.0 mi South 5.8 mph - N/A   Clear
1:15 AM 71.6 °F - 69.6 °F 93% 30.07 in 10.0 mi South 5.8 mph - N/A   Clear
1:35 AM 71.2 °F - 69.6 °F 95% 30.07 in 10.0 mi South 4.6 mph - N/A   Clear
1:55 AM 71.4 °F - 69.6 °F 94% 30.06 in 10.0 mi South 5.8 mph - N/A   Clear
2:15 AM 71.6 °F - 69.8 °F 94% 30.06 in 10.0 mi South 5.8 mph - N/A   Clear
2:35 AM 71.6 °F - 69.8 °F 94% 30.06 in 10.0 mi South 4.6 mph - N/A   Clear
2:55 AM 70.7 °F - 69.3 °F 95% 30.05 in 10.0 mi South 5.8 mph - N/A   Clear
3:15 AM 70.2 °F - 68.9 °F 96% 30.05 in 7.0 mi South 4.6 mph - N/A   Clear
3:35 AM 70.0 °F - 68.9 °F 96% 30.05 in 7.0 mi South 4.6 mph - N/A   Clear
3:55 AM 69.8 °F - 68.5 °F 96% 30.05 in 7.0 mi SSE 5.8 mph - N/A   Clear
4:15 AM 70.2 °F - 68.9 °F 96% 30.06 in 7.0 mi SSE 5.8 mph - N/A   Clear
4:35 AM 70.3 °F - 68.9 °F 95% 30.06 in 10.0 mi South 4.6 mph - N/A   Scattered Clouds
4:55 AM 70.2 °F - 68.9 °F 96% 30.06 in 7.0 mi South 4.6 mph - N/A   Overcast
5:15 AM 70.0 °F - 68.7 °F 96% 30.06 in 7.0 mi South 4.6 mph - N/A   Mostly Cloudy
5:55 AM 69.8 °F - 68.9 °F 97% 30.07 in 7.0 mi South 4.6 mph - N/A   Clear
6:15 AM 70.2 °F - 68.9 °F 96% 30.07 in 7.0 mi South 4.6 mph - N/A   Clear
6:35 AM 70.7 °F - 69.3 °F 95% 30.07 in 7.0 mi South 4.6 mph - N/A   Clear
6:55 AM 70.9 °F - 69.3 °F 95% 30.07 in 7.0 mi SSW 4.6 mph - N/A   Clear
7:15 AM 71.6 °F - 69.4 °F 93% 30.07 in 10.0 mi South 5.8 mph - N/A   Scattered Clouds
7:35 AM 71.8 °F - 69.4 °F 92% 30.08 in 10.0 mi South 5.8 mph - N/A   Scattered Clouds
7:55 AM 72.0 °F - 69.8 °F 93% 30.10 in 10.0 mi SSW 3.5 mph - N/A   Mostly Cloudy
8:15 AM 72.7 °F - 70.3 °F 92% 30.10 in 10.0 mi South 4.6 mph - N/A   Mostly Cloudy
8:35 AM 73.8 °F - 70.0 °F 88% 30.11 in 10.0 mi South 5.8 mph - N/A   Mostly Cloudy
8:55 AM 74.5 °F - 70.2 °F 86% 30.11 in 10.0 mi SSW 5.8 mph - N/A   Scattered Clouds
9:15 AM 75.4 °F - 70.7 °F 85% 30.11 in 10.0 mi SSW 4.6 mph - N/A   Scattered Clouds
9:35 AM 76.1 °F - 70.7 °F 83% 30.11 in 10.0 mi SSW 6.9 mph - N/A   Mostly Cloudy
9:55 AM 77.0 °F - 70.7 °F 81% 30.12 in 10.0 mi SSW 5.8 mph - N/A   Scattered Clouds
10:15 AM 77.9 °F - 70.9 °F 79% 30.12 in 10.0 mi SSW 5.8 mph - N/A   Scattered Clouds
10:35 AM 79.0 °F - 71.8 °F 78% 30.12 in 10.0 mi SW 5.8 mph - N/A   Scattered Clouds
10:55 AM 80.4 °F 84.4 °F 72.0 °F 75% 30.12 in 10.0 mi WSW 4.6 mph - N/A   Clear
11:15 AM 80.8 °F 85.1 °F 72.1 °F 75% 30.12 in 10.0 mi SW 4.6 mph - N/A   Clear
11:35 AM 80.8 °F 85.2 °F 72.5 °F 76% 30.12 in 10.0 mi SSW 4.6 mph - N/A   Clear
11:55 AM 81.1 °F 86.0 °F 73.0 °F 76% 30.12 in 10.0 mi SSW 5.8 mph - N/A   Clear
12:15 PM 81.7 °F 86.7 °F 72.5 °F 74% 30.11 in 10.0 mi SSW 9.2 mph - N/A   Clear
12:35 PM 81.9 °F 87.0 °F 73.0 °F 74% 30.11 in 10.0 mi South 4.6 mph - N/A   Clear
12:55 PM 82.8 °F 89.2 °F 74.3 °F 75% 30.10 in 10.0 mi South 6.9 mph - N/A   Clear
1:15 PM 84.7 °F 93.2 °F 75.2 °F 73% 30.09 in 10.0 mi South 10.4 mph - N/A   Clear
1:35 PM 85.3 °F 93.4 °F 74.7 °F 70% 30.08 in 10.0 mi South 11.5 mph - N/A   Clear
1:55 PM 85.3 °F 93.4 °F 74.3 °F 70% 30.07 in 10.0 mi South 11.5 mph - N/A   Clear
2:15 PM 84.4 °F 91.0 °F 73.2 °F 69% 30.07 in 10.0 mi SSW 8.1 mph - N/A   Clear
2:35 PM 85.6 °F 94.2 °F 74.7 °F 70% 30.07 in 10.0 mi South 11.5 mph - N/A   Clear
2:55 PM 86.9 °F 95.9 °F 74.7 °F 67% 30.06 in 10.0 mi SSW 11.5 mph - N/A   Clear
3:15 PM 87.3 °F 96.3 °F 74.7 °F 66% 30.05 in 10.0 mi South 11.5 mph 17.3 mph N/A   Scattered Clouds
3:35 PM 88.0 °F 98.0 °F 75.4 °F 66% 30.06 in 10.0 mi SSW 10.4 mph - N/A   Scattered Clouds
3:55 PM 87.4 °F 94.4 °F 72.7 °F 61% 30.05 in 10.0 mi SSW 10.4 mph 16.1 mph N/A   Scattered Clouds
4:15 PM 86.4 °F 93.4 °F 72.9 °F 64% 30.05 in 10.0 mi SW 6.9 mph - N/A   Clear
4:35 PM 86.0 °F 93.4 °F 73.6 °F 66% 30.05 in 10.0 mi SW 8.1 mph - N/A   Clear
4:55 PM 85.1 °F 91.8 °F 73.2 °F 67% 30.05 in 10.0 mi SW 8.1 mph - N/A   Clear
5:15 PM 84.2 °F 89.9 °F 72.3 °F 67% 30.05 in 10.0 mi SW 6.9 mph - N/A   Clear
5:35 PM 83.5 °F 90.9 °F 74.7 °F 75% 30.04 in 10.0 mi South 4.6 mph - N/A   Clear
5:55 PM 84.2 °F 91.2 °F 73.8 °F 71% 30.03 in 10.0 mi South 5.8 mph - N/A   Clear
6:15 PM 83.7 °F 90.7 °F 74.1 °F 73% 30.03 in 10.0 mi South 5.8 mph - N/A   Clear
6:35 PM 83.3 °F 89.9 °F 73.9 °F 73% 30.03 in 10.0 mi South 6.9 mph - N/A   Clear
6:55 PM 82.4 °F 88.4 °F 73.8 °F 75% 30.03 in 10.0 mi South 5.8 mph - N/A   Clear
7:15 PM 81.9 °F 87.7 °F 74.1 °F 77% 30.03 in 10.0 mi South 5.8 mph - N/A   Clear
7:35 PM 81.5 °F 87.2 °F 73.9 °F 78% 30.03 in 10.0 mi SSW 6.9 mph - N/A   Clear
7:55 PM 80.8 °F 86.1 °F 74.3 °F 81% 30.03 in 10.0 mi South 5.8 mph - N/A   Clear
8:15 PM 80.1 °F 84.6 °F 74.3 °F 82% 30.03 in 10.0 mi South 4.6 mph - N/A   Clear
8:35 PM 79.3 °F - 73.8 °F 83% 30.03 in 10.0 mi South 4.6 mph - N/A   Clear
8:55 PM 78.4 °F - 73.6 °F 85% 30.03 in 10.0 mi South 4.6 mph - N/A   Clear
9:15 PM 77.9 °F - 73.6 °F 86% 30.04 in 10.0 mi South 5.8 mph - N/A   Clear
9:35 PM 78.3 °F - 73.4 °F 85% 30.04 in 10.0 mi South 6.9 mph - N/A   Clear
9:55 PM 78.3 °F - 73.0 °F 84% 30.04 in 10.0 mi South 6.9 mph - N/A   Clear
10:15 PM 77.5 °F - 73.0 °F 86% 30.05 in 10.0 mi South 5.8 mph - N/A   Clear
10:35 PM 76.8 °F - 72.7 °F 87% 30.05 in 10.0 mi SSE 5.8 mph - N/A   Clear
10:55 PM 76.1 °F - 72.7 °F 89% 30.05 in 10.0 mi South 6.9 mph - N/A   Clear
11:15 PM 75.4 °F - 72.7 °F 91% 30.05 in 10.0 mi South 6.9 mph - N/A   Clear
11:35 PM 75.2 °F - 72.5 °F 91% 30.05 in 10.0 mi South 5.8 mph - N/A   Clear
11:55 PM 75.6 °F - 72.5 °F 90% 30.05 in 10.0 mi South 5.8 mph - N/A   Clear